FENGYUN 1C DEB *, 46993

Orbit data source: Space-Track

FENGYUN 1C DEB *, 46993 is space debris in LEO originally from a launch on Mon, 10 May 1999 UTC launched from the Taiyaun Space Center, China (TSC). Fengyun 1C debris stems from the Chinese weather satellite Fengyun-1C, which was intentionally destroyed by a Chinese anti-satellite missile in 2007. This event dramatically increased the amount of space debris, with thousands of trackable fragments posing hazards to satellites and human spaceflight. The Fengyun 1C debris cloud has become a focal point in discussions about space sustainability and the need for international regulations to prevent the creation of new debris.

Loading next visibility...
FENGYUN 1C DEB * details
Identifier
46993, 1999-025EZT
Orbit
LEO
Last TLE update12 hours ago
Origin
Flag of CNCASC (CN / PRC)
ManufacturerUnknown
MissionSpacecraft
Bus & MotorUnknown
MassUnknown
Launch date (UTC)
1999-05-10 (26 years ago)
Launch vehicleUnknown
Launch site
Taiyaun Space Center, China (TSC)
Object type
Payload
Rocket body
Debris
Shape & HBRUnknown
Radar Cross SectionSmall (<0.1 m²)

Expand to show TLE details & history

TLE from 12 hours ago
0 FENGYUN 1C DEB *
1 46993U 99025EZT 24339.68611366  .00000922  00000-0  87313-3 0  9992
2 46993  98.6800 127.8317 0264978 207.5500 164.9486 13.68775931551535
Epoch: 2024-12-04T16:28Z
Definitive object data (Epoch: 2024-12-04T16:28:00.22Z)
Latitude13.07261°
Longitude164.83179°
Altitude1,195.338 km
Speed7.164 km/s
True Right ascension08h 23m 14s
True Declination13° 00' 05"
Sunlit
Object was in full shadow at TLE epoch
Visualization TLE readout
Latitude-2.29564°
Longitude167.66026°
Altitude1,178.038 km
Speed7.18 km/s
Apparent Right ascension10h 47m 20s
Apparent Declination-26° 02' 35"
Sunlit
Object is in daylight
Visualization observer readout
Local Sidereal Time02:37:32
Azimuth92.07° ESE
Elevation-40.653°
Doppler factor1
Orbital elements
Apogee altitude1,196.728 km
Perigee altitude805.656 km
Semi-major axis7,379.329 km
Eccentricity0.0264978
Inclination98.68°
RAAN127.8317°
Arg. of periapsis207.55°
True anomaly165.71262°
Mean anomaly164.9486°
Eccentric anomaly165.33301°
Mean motion3.42387 °/min
BSTAR0.00087313
Orbital period105.14 mins
Loading maneuver chart data...
Loading historical data...
Loading historical data...
Loading historical data...
Loading historical data...
Loading historical data...
Loading historical data...
Loading historical data...

FENGYUN 1C DEB * Visibility forecast

Observer location: undefined°, undefined

Span
Click to sort rows by Start time (UTC) header in descending order
Start Az.
Max El. time (UTC)
Max El. Az.
Max El.
End time (UTC)
End Az.
8 mins2024-12-05 08:22:05.875Z94.987° ESE2024-12-05 08:26:05.875Z58.059° ENE18.126°2024-12-05 08:30:05.875Z21.254° NNE
12 mins2024-12-05 10:03:05.875Z166.39° S2024-12-05 10:09:05.875Z294.576° NW44.93°2024-12-05 10:15:05.875Z345.579° N
6 mins2024-12-05 11:51:05.875Z249.875° W2024-12-05 11:53:05.875Z267.68° W14.524°2024-12-05 11:57:05.875Z302.726° NW
9 mins2024-12-05 22:51:05.875Z18.485° NNE2024-12-05 22:55:05.875Z65.064° ENE43.701°2024-12-05 23:00:05.875Z187.656° SSW
5 mins2024-12-06 00:36:05.875Z328.649° NNW2024-12-06 00:38:05.875Z307.051° NW15.48°2024-12-06 00:41:05.875Z272.936° WNW
|